Weather in Mandalgovi

Mongolia     45°45′43″N   106°16′18″E
temp.,
°C
wind,
m/s
gust,
m/s
humid.,
%
clouds,
%
prec.,
mm/h
press.,
hPa
HPBL,
m
15 august, mon
mon1523:00+15n36670 0.0 1008118
02:00+14nnw37730 0.0 1008131
05:00+14nw34750 0.0 100960
08:00+16nw34630 0.0 1010186
11:00+21wnw34400 0.0 10091141
14:00+24wnw35280 0.0 10072157
17:00+25nw35261 0.0 10062672
20:00+22sse11340 0.0 100511
16 august, tue
tue1623:00+20se49370 0.0 1006153
02:00+19sse61339100 0.0 1006310
05:00+20sse7143696 0.0 1004414
08:00+20sse7123772 0.0 1003652
11:00+28sw810150 0.0 10002021
14:00+30sw79132 0.0 9983810
17:00+30wsw67101 0.0 9963635
20:00+25w331699 0.0 99625
17 august, wed
wed1723:00+22sse1121100 0.0 99711
02:00+23s4517100 0.0 99760
05:00+21w331870 0.0 99631
08:00+17n7866100 0.0 999235
11:00+21nne7750100 0.0 999470
14:00+23n5540100 0.0 999981
17:00+24n4436100 0.0 9991408
20:00+20nne5841100 0.0 1000253
18 august, thu
thu1823:00+18ne6105582 0.0 1001288
02:00+17ene4866100 0.0 1001257
05:00+17e6872100 0.0 1001276
08:00+15nne6777100 1.1 1003368
11:00+19ne44605 1.1 1003654
14:00+22ne21468 1.1 10021551
17:00+24n133829 0.0 10012252
20:00+21e45504 0.6 1003221
19 august, fri
fri1923:00+16ese35661 0.3 1005131
02:00+17s59560 0.3 1004201
05:00+16s410610 0.0 1004195
08:00+19e13520 0.0 1004234
11:00+22ene22410 0.0 1003816
14:00+27sw34130 0.0 10012388
17:00+27w67140 0.0 9993230
20:00+23nw3320100 0.0 100025